This is the latest recevied weather packets stored in our database for station/object WW5JC. If no packets are shown the sender has not sent any weather packets the latest 10 day(s).
| Time | Temp. | Humidity | Pressure | Rain* | Wind** | Luminosity | Snow |
|---|---|---|---|---|---|---|---|
| 1777428457 | 21.67° C | 96% | 1013.2 hPa | 0 mm | - | 0 W/m² | - |
| 1777428153 | 21.67° C | 96% | 1013.4 hPa | 0 mm | - | 0 W/m² | - |
| 1777427849 | 21.67° C | 96% | 1013 hPa | 0 mm | - | 0 W/m² | - |
| 1777427546 | 21.67° C | 96% | 1013.1 hPa | 0 mm | - | 0 W/m² | - |
| 1777427242 | 21.67° C | 95% | 1013.1 hPa | 0 mm | - | 0 W/m² | - |
| 1777426940 | 21.67° C | 95% | 1013.1 hPa | 0 mm | - | 0 W/m² | - |
| 1777426636 | 22.22° C | 96% | 1012.7 hPa | 0 mm | - | 0 W/m² | - |
| 1777426333 | 22.22° C | 95% | 1012.7 hPa | 0 mm | - | 0 W/m² | - |
| 1777426028 | 22.78° C | 96% | 1012.6 hPa | 0 mm | - | 0 W/m² | - |
| 1777425723 | 23.33° C | 96% | 1012.5 hPa | 0 mm | - | 0 W/m² | - |
| 1777425418 | 23.89° C | 95% | 1012.6 hPa | 0 mm | - | 0 W/m² | - |
| 1777425114 | 24.44° C | 95% | 1012.5 hPa | 0 mm | - | 1 W/m² | - |
| 1777424811 | 24.44° C | 95% | 1012.3 hPa | 0 mm | - | 2 W/m² | - |
| 1777424506 | 24.44° C | 95% | 1012.4 hPa | 0 mm | - | 3 W/m² | - |
| 1777424202 | 24.44° C | 95% | 1012.3 hPa | 0 mm | - | 3 W/m² | - |
| 1777423900 | 24.44° C | 94% | 1012.4 hPa | 0 mm | - | 7 W/m² | - |
| 1777423596 | 25° C | 94% | 1012.2 hPa | 0 mm | - | 10 W/m² | - |
| 1777423291 | 25° C | 92% | 1012.3 hPa | 0 mm | - | 14 W/m² | - |
| 1777422986 | 25.56° C | 91% | 1012.4 hPa | 0 mm | - | 19 W/m² | - |
| 1777422681 | 25.56° C | 91% | 1012.3 hPa | 0 mm | - | 24 W/m² | - |
| 1777422376 | 25.56° C | 91% | 1011.7 hPa | 0 mm | - | 30 W/m² | - |
| 1777422072 | 25.56° C | 91% | 1011.8 hPa | 0 mm | - | 36 W/m² | - |
| 1777421766 | 25.56° C | 91% | 1011.7 hPa | 0 mm | - | 43 W/m² | - |
| 1777421462 | 25.56° C | 91% | 1011.7 hPa | 0 mm | - | 52 W/m² | - |
| 1777421159 | 25.56° C | 91% | 1011.6 hPa | 0 mm | - | 60 W/m² | - |
* Rain latest hour (hover to see other rain measurements)
** Current wind speed in m/s (hover to see current wind gust speed)